Tracking 19846 objects as of 20-Sep-2019
HD Live streaming from Space Station
objects crossing your sky now

NATO 3C

Track NATO 3C now!
NATO 3C is classified as:


NORAD ID: 11115
Int'l Code: 1978-106A
Perigee: 36,280.3 km
Apogee: 36,324.0 km
Inclination: 13.4 °
Period: 1,462.1 minutes
Semi major axis: 42673 km
RCS: 7.0899 m2 (large)
Launch date: November 19, 1978
Source: North Atlantic Treaty Organization (NATO)
Launch site: AIR FORCE EASTERN TEST RANGE (AFETR)
aabbcc
Your satellite tracking list
Your tracking list is empty




NASA's NSSDC Master Catalog

Two Line Element Set (TLE):
1 11115U 78106A   19261.70500135 -.00000207 +00000-0 +00000-0 0  9991
2 11115 013.4395 334.6639 0005112 300.5516 151.4850 00.98485177630955
Source of the keplerian elements: AFSPC